Shelbyville, IN

5:48 AM EST on December 09, 2016 (GMT -0500)
Shelbyville Municipal

Weather History for KGEZ - September, 2011

Change the Weather History Date:

Tuesday, September 27, 2011

  Actual Average Record
Temperature  
Mean Temperature 61 °F 61 °F  
Max Temperature 67 °F 73 °F 86 °F (1999)
Min Temperature 54 °F 49 °F 41 °F (2000)
Degree Days  
Heating Degree Days 4 6  
Month to date heating degree days 96 60  
Since 1 July heating degree days 96 66  
Cooling Degree Days 0 2  
Month to date cooling degree days 92 91  
Year to date cooling degree days 1239 897  
Growing Degree Days 10 (Base 50)    
Moisture  
Dew Point 49 °F    
Average Humidity 70    
Maximum Humidity 83    
Minimum Humidity 56    
Precipitation  
Precipitation 0.06 in 0.11 in 1.04 in (2002)
Month to date precipitation 5.95 2.83  
Year to date precipitation 41.05 33.11  
Sea Level Pressure  
Sea Level Pressure 29.78 in    
Wind  
Wind Speed 11 mph (SSW)    
Max Wind Speed 23 mph    
Max Gust Speed 28 mph    
Visibility 10 miles    
Events Rain    
T = Trace of Precipitation, MM = Missing Value Source: NWS Daily Summary

Daily Weather History Graph

Daily Weather History Graph

Search for Another Location

Airport or City:

Trip Planner

Search our weather history database for the weather conditions in past years. The results will help you decide how hot, cold, wet, or windy it might be!

Date:

Astronomy

Sep. 27, 2011 Rise Set
Actual Time 7:35 AM EDT 7:32 PM EDT
Civil Twilight 7:08 AM EDT 7:59 PM EDT
Nautical Twilight 6:37 AM EDT 8:30 PM EDT
Astronomical Twilight 6:05 AM EDT 9:02 PM EDT
Moon 7:48 AM EDT (9/27) 7:23 PM EDT (9/27)
Length of Visible Light 12h 50m
Length of Day
11h 57m
New Moon, 0% of the Moon is Illuminated
Sep 27
New Moon
Oct 3
First Quarter
Oct 11
Full
Oct 19
Last Quarter
Oct 26
New

Hourly Weather History & Observations

Time (EDT) Temp. Dew Point Humidity Pressure Visibility Wind Dir Wind Speed Gust Speed Precip Events Conditions
12:53 AM 55.9 °F 46.0 °F 69% 29.81 in 10.0 mi South 9.2 mph - N/A   Clear
1:53 AM 57.0 °F 46.9 °F 69% 29.80 in 10.0 mi South 10.4 mph - N/A   Mostly Cloudy
2:53 AM 55.9 °F 48.0 °F 75% 29.81 in 10.0 mi South 9.2 mph - 0.00 in Rain Light Rain
3:53 AM 54.0 °F 48.9 °F 83% 29.80 in 10.0 mi South 8.1 mph - 0.02 in Rain Light Rain
4:53 AM 55.0 °F 48.9 °F 80% 29.77 in 10.0 mi SE 9.2 mph - N/A   Overcast
5:53 AM 55.9 °F 48.0 °F 75% 29.76 in 10.0 mi SSE 9.2 mph - N/A   Overcast
7:53 AM 55.9 °F 48.9 °F 77% 29.75 in 10.0 mi SSE 11.5 mph - 0.02 in Rain Light Rain
8:53 AM 55.9 °F 50.0 °F 80% 29.75 in 10.0 mi South 10.4 mph - 0.02 in Rain Light Rain
9:53 AM 57.0 °F 50.0 °F 77% 29.75 in 10.0 mi South 12.7 mph - 0.00 in Rain Light Rain
10:53 AM 59.0 °F 50.0 °F 72% 29.76 in 10.0 mi South 12.7 mph - 0.00 in   Overcast
11:53 AM 61.0 °F 50.0 °F 67% 29.77 in 10.0 mi South 12.7 mph - N/A   Overcast
12:53 PM 63.0 °F 50.0 °F 63% 29.77 in 10.0 mi SSW 15.0 mph 23.0 mph N/A   Overcast
1:53 PM 66.0 °F 51.1 °F 59% 29.76 in 10.0 mi South 15.0 mph 21.9 mph N/A   Scattered Clouds
2:53 PM 64.0 °F 50.0 °F 60% 29.75 in 10.0 mi WSW 13.8 mph 21.9 mph N/A   Overcast
3:53 PM 64.0 °F 48.9 °F 58% 29.75 in 10.0 mi SW 15.0 mph - N/A   Overcast
4:53 PM 64.0 °F 48.9 °F 58% 29.75 in 10.0 mi SW 13.8 mph - N/A   Overcast
5:53 PM 63.0 °F 48.0 °F 58% 29.77 in 10.0 mi WSW 17.3 mph 21.9 mph N/A   Overcast
6:53 PM 62.1 °F 48.0 °F 60% 29.79 in 10.0 mi WSW 12.7 mph - N/A   Overcast
7:53 PM 57.9 °F 48.9 °F 72% 29.80 in 10.0 mi West 6.9 mph - N/A   Mostly Cloudy
8:53 PM 55.9 °F 48.9 °F 77% 29.81 in 10.0 mi SW 5.8 mph - N/A   Mostly Cloudy
9:53 PM 57.0 °F 50.0 °F 77% 29.82 in 10.0 mi SSW 6.9 mph - N/A   Overcast
10:53 PM 57.0 °F 48.9 °F 74% 29.81 in 10.0 mi SSW 6.9 mph - N/A   Overcast
11:53 PM 55.9 °F 48.9 °F 77% 29.81 in 10.0 mi SW 6.9 mph - N/A   Overcast